CW2927 Weather Reports


Display with metric or nautical units.
time (UTC)temp
F
wind
direction
speed
MPH
gust
MPH
rain 1hr
in
rain 24hr
in
rain mn
in
humidity
%
barometer
mb
20170821234205 76 227 1.0 3.0 0.00 0.00 0.00 75 1014.0
20170821232705 77 223 1.0 6.0 0.00 0.00 0.00 73 1014.0
20170821232206 77 220 1.0 7.0 0.00 0.00 0.00 72 1014.0
20170821230706 79 211 2.0 5.0 0.00 0.00 0.00 71 1013.9
20170821230205 79 215 2.0 6.0 0.00 0.00 0.00 70 1014.0
20170821224705 80 225 1.0 3.0 0.00 0.00 0.00 68 1014.0
20170821224206 80 227 1.0 6.0 0.00 0.00 0.00 67 1014.0
20170821222706 81 223 1.0 3.0 0.00 0.00 0.00 65 1014.1
20170821222206 81 221 1.0 8.0 0.00 0.00 0.00 65 1014.0
20170821220705 81 266 3.0 7.0 0.00 0.00 0.00 64 1014.0
20170821220205 81 296 1.0 9.0 0.00 0.00 0.00 63 1013.9
20170821214706 82 299 3.0 9.0 0.00 0.00 0.00 62 1014.0
20170821214206 82 297 4.0 10.0 0.00 0.00 0.00 62 1014.0
20170821212705 82 271 3.0 9.0 0.00 0.00 0.00 61 1014.1
20170821212205 82 248 2.0 7.0 0.00 0.00 0.00 62 1014.1
20170821210706 81 283 3.0 9.0 0.00 0.00 0.00 62 1014.2
20170821210205 81 273 3.0 13.0 0.00 0.00 0.00 61 1014.2
20170821204705 83 273 5.0 13.0 0.00 0.00 0.00 61 1014.1
20170821204205 83 263 5.0 15.0 0.00 0.00 0.00 62 1014.1
20170821202705 83 272 3.0 12.0 0.00 0.00 0.00 65 1014.2
20170821202206 83 280 3.0 16.0 0.00 0.00 0.00 65 1014.2
20170821200706 83 252 3.0 13.0 0.00 0.00 0.00 65 1014.3
20170821200205 82 255 5.0 14.0 0.00 0.00 0.00 65 1014.2
20170821194705 82 231 5.0 12.0 0.00 0.00 0.00 67 1014.3
20170821194205 82 284 5.0 13.0 0.00 0.00 0.00 67 1014.3
20170821192705 81 270 5.0 13.0 0.00 0.00 0.00 70 1014.4
20170821192206 81 205 3.0 12.0 0.00 0.00 0.00 72 1014.4
20170821190705 80 258 5.0 10.0 0.00 0.00 0.00 71 1014.6
20170821190205 80 236 2.0 12.0 0.00 0.00 0.00 72 1014.6
20170821184705 80 238 3.0 9.0 0.00 0.00 0.00 71 1014.9
20170821184205 80 219 3.0 12.0 0.00 0.00 0.00 69 1014.9
20170821182705 81 230 5.0 12.0 0.00 0.00 0.00 68 1015.1
20170821182205 81 284 5.0 13.0 0.00 0.00 0.00 68 1015.3
20170821180705 82 278 3.0 7.0 0.00 0.00 0.00 65 1015.4
20170821180205 82 254 3.0 12.0 0.00 0.00 0.00 65 1015.6
20170821174704 82 310 5.0 13.0 0.00 0.00 0.00 64 1015.8
20170821174206 82 239 3.0 14.0 0.00 0.00 0.00 66 1015.7
20170821172706 81 262 6.0 12.0 0.00 0.00 0.00 68 1015.8
20170821172205 81 313 6.0 14.0 0.00 0.00 0.00 66 1015.8
20170821170705 81 296 4.0 9.0 0.00 0.00 0.00 68 1016.0
20170821170205 81 262 3.0 14.0 0.00 0.00 0.00 69 1016.0
20170821164705 81 291 4.0 9.0 0.00 0.00 0.00 71 1016.2
20170821164205 81 288 3.0 12.0 0.00 0.00 0.00 71 1016.4
20170821162705 81 231 5.0 17.0 0.00 0.00 0.00 71 1016.4
20170821162205 81 243 4.0 12.0 0.00 0.00 0.00 70 1016.5
20170821160705 80 270 6.0 12.0 0.00 0.00 0.00 71 1016.4
20170821160205 80 259 5.0 14.0 0.00 0.00 0.00 71 1016.5
20170821154705 80 255 5.0 12.0 0.00 0.00 0.00 72 1016.6
20170821154205 79 231 5.0 12.0 0.00 0.00 0.00 74 1016.7
20170821152705 79 221 5.0 12.0 0.00 0.00 0.00 73 1016.8
20170821152205 78 239 4.0 12.0 0.00 0.00 0.00 73 1016.8
20170821150705 78 249 6.0 10.0 0.00 0.00 0.00 73 1017.0
20170821150205 78 276 6.0 13.0 0.00 0.00 0.00 74 1017.0
20170821144705 77 275 2.0 6.0 0.00 0.00 0.00 76 1017.1
20170821144205 76 272 3.0 13.0 0.00 0.00 0.00 76 1017.1
20170821142705 76 260 5.0 10.0 0.00 0.00 0.00 77 1017.2
20170821142204 75 251 5.0 12.0 0.00 0.00 0.00 77 1017.2
20170821140705 74 252 3.0 7.0 0.00 0.00 0.00 81 1017.1
20170821140205 74 268 3.0 12.0 0.00 0.00 0.00 81 1017.1
20170821134704 73 223 3.0 9.0 0.00 0.00 0.00 83 1017.3
20170821134205 73 237 5.0 12.0 0.00 0.00 0.00 83 1017.2
20170821132705 72 269 4.0 7.0 0.00 0.00 0.00 85 1017.2
20170821132205 71 251 4.0 9.0 0.00 0.00 0.00 86 1017.3
20170821130705 70 221 3.0 9.0 0.00 0.00 0.00 87 1017.2
20170821130205 70 223 5.0 12.0 0.00 0.00 0.00 86 1017.3
20170821124705 69 225 7.0 12.0 0.00 0.00 0.00 89 1017.3
20170821124205 69 225 5.0 14.0 0.00 0.00 0.00 90 1017.3
20170821122705 67 224 5.0 10.0 0.00 0.00 0.00 91 1017.3
20170821122205 67 217 3.0 12.0 0.00 0.00 0.00 91 1017.4
20170821120705 67 227 5.0 9.0 0.00 0.00 0.00 91 1017.4
20170821120205 67 238 4.0 10.0 0.00 0.00 0.00 92 1017.5
20170821114705 66 219 2.0 6.0 0.00 0.00 0.00 93 1017.6
20170821114205 65 235 2.0 7.0 0.00 0.00 0.00 93 1017.6
20170821112705 64 213 1.0 3.0 0.00 0.00 0.00 94 1017.5
20170821112205 64 229 2.0 7.0 0.00 0.00 0.00 94 1017.6
20170821110705 64 221 2.0 8.0 0.00 0.00 0.00 94 1017.6
20170821110204 64 249 2.0 9.0 0.00 0.00 0.00 94 1017.6
20170821104705 63 215 3.0 7.0 0.00 0.00 0.00 94 1017.6
20170821104205 63 209 3.0 7.0 0.00 0.00 0.00 94 1017.6
20170821102705 63 220 2.0 6.0 0.00 0.00 0.00 94 1017.6
20170821102205 63 227 1.0 7.0 0.00 0.00 0.00 94 1017.7
20170821100719 63 218 2.0 6.0 0.00 0.01 0.00 94 1017.7
20170821100205 63 215 1.0 5.0 0.00 0.01 0.00 94 1017.6
20170821094705 63 217 1.0 5.0 0.00 0.13 0.00 94 1017.5
20170821094204 63 221 2.0 6.0 0.00 0.13 0.00 94 1017.5
20170821092705 63 225 0.0 3.0 0.00 0.13 0.00 94 1017.6
20170821092205 63 218 1.0 6.0 0.00 0.13 0.00 94 1017.5
20170821090705 63 216 1.0 6.0 0.00 0.13 0.00 94 1017.3
20170821090205 63 205 4.0 7.0 0.00 0.13 0.00 94 1017.3
20170821084705 63 219 2.0 3.0 0.00 0.13 0.00 94 1017.2
20170821084205 63 217 1.0 5.0 0.00 0.13 0.00 94 1017.2
20170821082705 63 221 2.0 6.0 0.00 0.13 0.00 94 1017.1
20170821082204 63 227 3.0 6.0 0.00 0.13 0.00 94 1017.1
20170821080704 63 217 2.0 5.0 0.00 0.13 0.00 94 1017.1
20170821080205 63 209 2.0 6.0 0.00 0.13 0.00 94 1017.1
20170821074705 63 221 1.0 3.0 0.00 0.13 0.00 94 1017.0
20170821074205 63 211 2.0 7.0 0.00 0.13 0.00 94 1017.0
20170821072705 63 219 2.0 3.0 0.00 0.13 0.00 94 1017.1
20170821072204 63 221 1.0 5.0 0.00 0.13 0.00 94 1017.0
20170821070705 64 214 2.0 3.0 0.00 0.13 0.00 94 1016.9
20170821070205 64 213 0.0 5.0 0.00 0.13 0.00 94 1017.0
20170821064705 64 219 1.0 6.0 0.00 0.13 0.00 94 1017.0
20170821064205 64 218 2.0 6.0 0.00 0.13 0.00 94 1017.1
20170821062704 64 221 0.0 2.0 0.00 0.13 0.00 94 1017.1
20170821062205 64 221 0.0 6.0 0.00 0.13 0.00 94 1017.0
20170821060709 64 215 1.0 3.0 0.00 0.13 0.00 93 1017.0
20170821060205 64 217 1.0 3.0 0.00 0.13 0.00 93 1017.0
20170821054705 64 222 1.0 5.0 0.00 0.13 0.00 93 1017.0
20170821054205 64 220 1.0 6.0 0.00 0.13 0.00 93 1017.0
20170821052705 64 216 1.0 5.0 0.00 0.13 0.00 93 1016.9
20170821052205 64 214 1.0 5.0 0.00 0.13 0.00 92 1016.9
20170821050705 64 224 0.0 3.0 0.00 0.13 0.00 92 1016.9
20170821050205 64 232 0.0 3.0 0.00 0.13 0.00 92 1016.9
20170821044704 64 221 0.0 2.0 0.00 0.13 0.00 91 1016.8
20170821044205 64 225 0.0 3.0 0.00 0.13 0.00 91 1016.8
20170821042705 64 219 0.0 1.0 0.00 0.13 0.00 90 1016.6
20170821042204 64 219 0.0 3.0 0.00 0.13 0.00 90 1016.6
20170821040705 64 219 0.0 2.0 0.00 0.13 0.00 90 1016.5
20170821040204 64 219 0.0 2.0 0.00 0.13 0.00 89 1016.3
20170821034704 64 219 0.0 2.0 0.00 0.13 0.13 89 1016.2
20170821034205 65 219 0.0 3.0 0.00 0.13 0.13 88 1016.2
20170821032704 65 214 0.0 0.0 0.00 0.13 0.13 87 1016.1
20170821032205 65 214 0.0 3.0 0.00 0.13 0.13 87 1016.1
20170821030704 66 213 0.0 2.0 0.00 0.13 0.13 86 1015.9
20170821030205 66 249 0.0 1.0 0.00 0.13 0.13 86 1015.8
20170821024704 67 281 0.0 0.0 0.00 0.13 0.13 85 1015.9
20170821024205 67 281 0.0 3.0 0.00 0.13 0.13 84 1015.9
20170821022704 67 303 0.0 2.0 0.00 0.13 0.13 84 1015.8
20170821022204 67 295 0.0 3.0 0.00 0.13 0.13 83 1015.8
20170821020704 68 295 1.0 3.0 0.00 0.13 0.13 82 1015.7
20170821020205 68 279 0.0 3.0 0.00 0.13 0.13 82 1015.7
20170821014705 69 312 1.0 6.0 0.00 0.13 0.13 81 1015.5
20170821014204 69 312 2.0 5.0 0.00 0.13 0.13 81 1015.5
20170821012704 69 323 1.0 5.0 0.00 0.13 0.13 80 1015.4
20170821012205 69 323 2.0 6.0 0.00 0.13 0.13 80 1015.4
20170821010704 69 283 1.0 2.0 0.00 0.13 0.13 80 1015.2
20170821010205 69 276 0.0 5.0 0.00 0.13 0.13 80 1015.2
20170821004705 70 296 1.0 3.0 0.00 0.13 0.13 80 1015.0
20170821004204 70 265 1.0 6.0 0.00 0.13 0.13 79 1014.9
20170821002705 71 248 0.0 3.0 0.00 0.13 0.13 78 1014.7
20170821002204 71 264 0.0 3.0 0.00 0.13 0.13 77 1014.7
20170821000704 72 261 0.0 6.0 0.00 0.13 0.13 76 1014.6
20170821000204 72 222 0.0 6.0 0.00 0.13 0.13 75 1014.5
20170820234704 73 263 1.0 5.0 0.00 0.13 0.13 73 1014.4